Regional Weather Roundup
Issued by NWS Portland, ME

Home | Current Version | Previous Version | Text Only | Print | Product List | Glossary On
Versions: 1 2 3 4 5 6 7 8 9 10 11 12 13 14 15 16 17 18 19 20 21 22 23 24 25 26 27 28 29 30 31 32 33 34 35 36 37 38 39 40 41 42 43 44 45 46 47 48 49 50
000
ASUS41 KGYX 270910
RWRGYX
WEATHER ROUNDUP FOR MAINE AND NEW HAMPSHIRE
NATIONAL WEATHER SERVICE GRAY ME
500 AM EDT THU APR 27 2017

MEZ002-005-006-010-012-015-018-020-021-024-026-027-029-271000-
MAINE

CITY           SKY/WX    TMP DP  RH WIND       PRES   REMARKS
PORTLAND       CLOUDY    49  48  97 VRB6      29.89R FOG
SANFORD        CLOUDY    52  51  97 NE6       29.88R FOG
BAR HARBOR     LGT RAIN  51  51 100 SE5       29.94F
WISCASSET      CLOUDY    51  50  96 CALM      29.91R
ROCKLAND         N/A     48  48 100 NE6       29.92S FOG
FRYEBURG       CLOUDY    53  53 100 CALM      29.89S
LEWISTONAUBURN CLOUDY    52  52 100 NE5       29.88F
AUGUSTA        CLOUDY    51  50  96 E6        29.90S
WATERVILLE     CLOUDY    53  52  96 E3        29.88S FOG
BANGOR         CLOUDY    53  52  96 SE6       29.93S
GREENVILLE       N/A     51  51 100 SE8       29.89F
MILLINOCKET    FOG       54  54 100 E6        29.94S VSB 3/4
HOULTON        CLOUDY    55  55 100 SE5       29.95R
PRESQUE ISLE   CLOUDY    55  54  96 SE7       29.96S FOG
FRENCHVILLE    FOG       52  50  93 E5        29.96R VSB 1/4
CARIBOU        FOG       55  54  96 SE5       29.95R VSB 1
$$

NHZ002-005-008-009-011-012-014-271000-
NEW HAMPSHIRE

CITY           SKY/WX    TMP DP  RH WIND       PRES   REMARKS
PORTSMOUTH     DRIZZLE   50  50  99 N7        29.86S FOG
ROCHESTER      CLOUDY    52  50  93 CALM      29.87R FOG
NASHUA         CLOUDY    53  53 100 CALM      29.88R FOG
MANCHESTER     CLOUDY    53  51  93 CALM      29.87R FOG
CONCORD        CLOUDY    53  52  96 CALM      29.87R FOG
LACONIA        CLOUDY    53  52  96 E7        29.87S FOG
PLYMOUTH       CLOUDY    52  51  97 CALM      29.88R FOG
BERLIN         CLOUDY    51  49  92 CALM      29.89R FOG
WHITEFIELD     CLOUDY    50  47  89 CALM      29.87R
JAFFREY        FOG       53  53 100 CALM      29.87S VSB 1
KEENE          CLOUDY    54  54 100 CALM      29.86S
LEBANON        CLOUDY    55  54  96 CALM      29.86S
MT WASHINGTON  FOG       43  43 100 SE16        N/A  VSB 1/8
$$

VTZ005-007-008-271000-
VERMONT

CITY           SKY/WX    TMP DP  RH WIND       PRES   REMARKS
ST JOHNSBURY     N/A     54  52  93 MISG      29.85S
BURLINGTON     CLEAR     54  51  90 SW3       29.83R
$$

MAZ007-012-024-CTZ003-RIZ002-NYZ038-NYZ072-271000-
SOUTHERN NEW ENGLAND AND NY

CITY           SKY/WX    TMP DP  RH WIND       PRES   REMARKS
BOSTON         FOG       51  51 100 NW5       29.86S VSB 1/2
WORCESTER      FOG       51  50  96 N6        29.87R VSB 1/2
NANTUCKET      CLOUDY    52  52 100 CALM      29.85R
PROVIDENCE     CLOUDY    55  55 100 N6        29.86R FOG
HARTFORD       CLOUDY    56  55  97 N3        29.86R
ALBANY         CLOUDY    60  54  80 CALM      29.85R
NEW YORK CITY  DRZL/FOG  58  56  93 CALM      29.85S VSB 1/2
$$

ANZ081-ANZ082-ANZ150-NHZ014-MEZ023>029-271000-
COASTAL MARINE OBSERVATIONS

STATION/POSITION TIME  TEMP    WIND        PRES    WAVE
                       AIR SEA DIR/SP/G            HT/PER
                 (UTC) (F)     (DEG/KT/KT) (MB)    (FT/S)
MOUNT DESERT ROC 0900   45                 1013.4F
MATINICUS ROCK   0800   45     150/ 13/ 14 1012.2S
ISLE OF SHOALS   0800   45     350/  6/  7 1011.3R
JEFFREYS LEDGE   0806      44                N/A     8/11
CASHES LEDGE BUO 0850   46 43              1011.8F   9/11
GEORGES BANK BUO 0750   53 42              1012.8   12/11
$$

.............KEY..............
   WCI - WIND CHILL
   TC  - TEMPERATURE IN CELSIUS
   VSB - VISIBILITY IN MILES
   HX  - HEAT INDEX
   FAIR- INDICATES FEW OR NO CLOUDS BELOW 12,000 FT, WITH NO
         SIGNIFICANT WEATHER AND/OR OBSTRUCTIONS TO VISIBILITY.






USA.gov is the U.S. government's official web portal to all federal, state and local government web resources and services.